STARLINK-37150, 68315

Orbit data source: Space-Track

STARLINK-37150, 68315 is a payload satellite owned by SpaceX/Seattle (US) in SSO that was launched on Fri, 20 Mar 2026 UTC via an FALCON 9 launch vehicle from the Air Force Western Test Range (AFWTR). Payload-class satellites include a variety of spacecraft equipped with specific instruments for various scientific and technological missions. These include communications satellites like Starlink; space stations such as the ISS; scientific satellites like the Hubble; Earth observation satellites from companies like Planet Labs, Umbra, and HawkEye 360; GPS; miniature CubeSats for education and research; and military/defense satellites.

Loading next visibility...
Identifier
68315, 2026-057X
Orbit
SSO
Country
Flag of USUS
Related business
Manufacturer
SpaceX/Seattle
Mission
Operational spacecraft
Bus & Motor
STARLINK V2MO, Unknown motor
Mass
575 kg wet, ~530 kg dry
Launch date (UTC)
2026-03-20 (3 months ago)
Launch vehicle
FALCON 9
Launch site
Air Force Western Test Range (AFWTR)
Object type
Payload
Rocket body
Debris
Shape & HBR
Unknown shape, 17.7 m
Radar Cross Section
Large (>1 m²)

Expand to show TLE details & history
Last TLE update: 14 hours ago

TLE from 14 hours ago
0 STARLINK-37150
1 68315U 26057X   26171.25002315  .00085691  00000-0  23518-2 0  9998
2 68315  97.2856 297.9984 0001487  72.4295 123.8767 15.36926998  6007
Epoch: 2026-06-20T06:00Z
TLE epoch observation values (Epoch: 2026-06-20T06:00:02.000Z)
Latitude
-16.4036°
Longitude
117.37776°
Altitude
462.427 km
Speed
7.634 km/s
True Right ascension
07h 43m 24s
True Declination
-16° 18' 24"
Sunlit
Object was in daylight at epoch
Visualization orbit readout
Latitude
Unknown
Longitude
Unknown
Altitude
Unknown
Speed
Unknown
Apparent Right ascension
Unknown
Apparent Declination
Unknown
Sunlit
N/A
Visualization observer readout
Local Sidereal Time
07:24:11
Azimuth
Unknown
Elevation
Unknown
Doppler factor
Unknown
Orbital elements
Apogee altitude
453.157 km
Perigee altitude
451.125 km
Semi-major axis
6,830.278 km
Eccentricity
0.00015
Inclination
97.2856°
RAAN
297.9984°
Arg. of periapsis
72.4295°
True anomaly
123.89085°
Mean anomaly
123.8767°
Eccentric anomaly
123.88377°
Mean motion
3.8449 °/min
Orbital period
93.63 mins
BSTAR
0.0023518
Loading maneuver chart data...
Computing Atmospheric mass density...
Loading historical data...
Loading historical data...
Loading historical data...
Loading historical data...
Loading historical data...
Loading historical data...
Loading historical data...

Documentation

Showing up to 5 results
|